sat.trackr.live / text

‹ back to catalog

STARLINK-1132

NORAD 45044 · 2020-006A

PAYLOAD ACTIVE UNKNOWN

§ Identity

Operator
Country
US
Launch date
2020-01-29
Launch site
AFETR
Launch vehicle
Mass (kg)
RCS (m²)

Purposes: comms

External: N2YO · Heavens-Above · Gunter

§ Orbital elements

Epoch: 2026-09-20T01:57:57.063744Z

Period
91.51 min
Inclination
53.1468°
Eccentricity
0.0001480
Mean motion
15.73566921 rev/d
Perigee alt
347.7 km
Apogee alt
349.7 km
Semi-major
6,726.8 km
B*
3.9601e-4
RAAN
31.9550°
Arg perigee
325.5241°
Mean anomaly
34.5683°
Rev number
36,723

§ Raw data

STARLINK-11321 45044U 20006A   26263.08191046  .00056219  00000+0  39601-3 0  99972 45044  53.1468  31.9550 0001480 325.5241  34.5683 15.73566921367239

JSON: /api/v1/satellites/45044 · /tle

For live sub-satellite position, see the globe view (requires WebGL).

§ Visibility from observer

Set your observer location to see the next 7 days of passes ≥ 10°. The values pass through the URL so the page stays shareable.

No JS? Fill the form by hand. The geolocation button needs JavaScript.